Погода в Баженове

Россия / Омская область     55°38′08″N   73°05′57″E
темп.,
°C
ветер,
м/с
пор.,
м/с
влажн.,
%
обл.,
%
осадки,
мм/ч
давл.,
гПа
погр.,
м
27 января, чт
чт2700:00−23ююз22100100 0.0 103121
03:00−21ююз22100100 0.0 103031
06:00−21ююз3410098 0.1 103148
09:00−21ююз34100100 0.0 103252
12:00−16ююз3794100 0.0 1031140
15:00−13ю3790100 0.0 1030192
18:00−16ю489378 0.0 103097
21:00−17ююз4991100 0.0 1030124
28 января, пт
пт2800:00−14ююз4992100 0.0 1029168
03:00−12ююз3695100 0.0 1028137
06:00−15ююз3497100 0.0 102852
09:00−17юз2299100 0.0 102934
12:00−12ююз2496100 0.0 102899
15:00−9ююз2494100 0.0 1028173
18:00−11ю2398100 0.0 102838
21:00−11ю2298100 0.0 102837
29 января, сб
сб2900:00−10ю239699 0.2 102774
03:00−12ю239763 0.1 102757
06:00−14ю239683 0.2 102848
09:00−20ююв229859 0.0 102817
12:00−15юв238736 0.0 102878
15:00−12вюв248856 0.0 1027122
18:00−19в329814 0.0 102732
21:00−21в359859 0.0 102754
30 января, вс
вс3000:00−21в369380 0.0 102660
03:00−20вюв48915 0.0 102599
06:00−19вюв399181 0.0 1024122
09:00−19вюв3992100 0.0 1023122
12:00−15юв4109164 0.0 1022213
15:00−13юв3692100 0.0 1020204
18:00−15юв3498100 0.0 102068
21:00−13ююв3897100 0.1 1020188
31 января, пн
пн3100:00−14ююз3697100 0.1 1020116
03:00−16юз3697100 0.0 102188
06:00−19юз3596100 0.0 102263
09:00−21ююз349651 0.0 102350
12:00−15ююз379560 0.0 1024146
15:00−11ююз479566 0.0 1023196
18:00−13ю499754 0.0 1024125
21:00−12ююз399799 0.0 1025124